Weather History for Traverse City, MI

Change the Weather History Date:

Friday, January 11, 2013

  Actual Average Record
Temperature  
Mean Temperature 43 °F 22 °F  
Max Temperature 49 °F 28 °F 53 °F (1975)
Min Temperature 36 °F 16 °F -15 °F (1979)
Degree Days  
Heating Degree Days 22 43  
Month to date heating degree days 374 470  
Since 1 July heating degree days 2841 3278  
Moisture  
Dew Point 38 °F    
Average Humidity 88    
Maximum Humidity 93    
Minimum Humidity 82    
Precipitation  
Precipitation 0.22 in 0.10 in 0.88 in (1977)
Month to date precipitation 0.22 1.06  
Year to date precipitation 0.22 1.06  
Sea Level Pressure  
Sea Level Pressure 29.76 in    
Wind  
Wind Speed 5 mph (South)    
Max Wind Speed 12 mph    
Max Gust Speed 18 mph    
Visibility 7 miles    
Events Rain    
T = Trace of Precipitation, MM = Missing Value Source: NWS Daily Summary

Daily Weather History Graph

Daily Weather History Graph

Search for Another Location

Airport:

Trip Planner

Search our weather history database for the weather conditions in past years. The results will help you decide how hot, cold, wet, or windy it might be!

Date:

Astronomy

Jan. 11, 2013 Rise Set
Actual Time 8:17 AM EST 5:23 PM EST
Civil Twilight 7:45 AM EST 5:56 PM EST
Nautical Twilight 7:08 AM EST 6:32 PM EST
Astronomical Twilight 6:33 AM EST 7:07 PM EST
Moon 7:48 AM EST (1/11) 5:42 PM EST (1/11)
Length of Visible Light 10h 11m
Length of Day
9h 05m
Waning Crescent, 0% of the Moon is Illuminated
Jan 11
Waning Crescent
Jan 11
New
Jan 18
First Quarter
Jan 26
Full
Feb 3
Last Quarter

Hourly Weather History & Observations

Time (EST) Temp. Windchill Dew Point Humidity Pressure Visibility Wind Dir Wind Speed Gust Speed Precip Events Conditions
12:53 AM 36.0 °F 32.1 °F 30.9 °F 82% 30.03 in 5.0 mi SE 4.6 mph - 0.06 in Rain Light Rain
1:18 AM 35.6 °F 31.7 °F 32.0 °F 87% 29.99 in 5.0 mi Variable 4.6 mph - 0.04 in Rain Light Rain
1:53 AM 37.0 °F 34.5 °F 33.1 °F 86% 29.99 in 6.0 mi Variable 3.5 mph - 0.07 in Rain Light Rain
2:07 AM 37.4 °F 34.9 °F 33.8 °F 87% 29.96 in 6.0 mi Variable 3.5 mph - 0.00 in Rain Light Rain
2:53 AM 37.0 °F 31.6 °F 33.1 °F 86% 29.94 in 5.0 mi SE 6.9 mph 17.3 mph 0.04 in Rain Light Rain
3:13 AM 37.4 °F 32.8 °F 33.8 °F 87% 29.91 in 7.0 mi Variable 5.8 mph - 0.01 in Rain Light Rain
3:53 AM 37.0 °F 31.6 °F 33.1 °F 86% 29.90 in 8.0 mi Variable 6.9 mph - 0.03 in Rain Light Rain
4:31 AM 37.4 °F 32.1 °F 33.8 °F 87% 29.84 in 9.0 mi South 6.9 mph 17.3 mph 0.00 in   Overcast
4:53 AM 37.0 °F 31.6 °F 34.0 °F 89% 29.85 in 10.0 mi Variable 6.9 mph - 0.00 in   Overcast
5:53 AM 37.0 °F 32.4 °F 34.0 °F 89% 29.80 in 10.0 mi Variable 5.8 mph - 0.00 in   Overcast
6:12 AM 37.4 °F 31.4 °F 33.8 °F 87% 29.76 in 10.0 mi SSE 8.1 mph - 0.01 in Rain Light Rain
6:41 AM 37.4 °F 31.4 °F 33.8 °F 87% 29.75 in 10.0 mi SE 8.1 mph - 0.01 in Rain Light Rain
6:53 AM 37.9 °F 34.4 °F 35.1 °F 89% 29.77 in 10.0 mi Variable 4.6 mph - 0.01 in   Overcast
7:53 AM 37.9 °F 33.5 °F 35.1 °F 89% 29.73 in 10.0 mi Variable 5.8 mph - 0.00 in   Light Drizzle
8:26 AM 39.2 °F 33.6 °F 35.6 °F 87% 29.69 in 10.0 mi SSE 8.1 mph - 0.00 in   Overcast
8:53 AM 39.0 °F 34.8 °F 36.0 °F 89% 29.70 in 10.0 mi South 5.8 mph - 0.00 in   Overcast
9:51 AM 39.2 °F 35.0 °F 37.4 °F 93% 29.70 in 1.8 mi Variable 5.8 mph - 0.00 in   Light Drizzle
9:53 AM 39.0 °F 34.8 °F 37.0 °F 93% 29.72 in 2.0 mi Variable 5.8 mph - 0.00 in   Light Drizzle
10:53 AM 39.9 °F 36.7 °F 37.9 °F 93% 29.71 in 2.0 mi SSE 4.6 mph - 0.01 in Rain Light Rain
11:10 AM 39.2 °F - 37.4 °F 93% 29.69 in 2.0 mi Calm Calm - 0.00 in Rain Light Rain
11:29 AM 39.2 °F - 37.4 °F 93% 29.68 in 4.0 mi Calm Calm - 0.00 in Rain Light Rain
11:47 AM 39.2 °F - 37.4 °F 93% 29.68 in 4.0 mi Calm Calm - 0.00 in Rain Light Rain
11:53 AM 39.9 °F - 37.9 °F 93% 29.69 in 3.0 mi Calm Calm - 0.00 in Rain Light Rain
12:53 PM 41.0 °F - 39.0 °F 93% 29.66 in 9.0 mi Calm Calm - 0.00 in   Overcast
1:53 PM 43.0 °F - 41.0 °F 93% 29.65 in 9.0 mi Calm Calm - 0.00 in Rain Light Rain
3:30 PM 46.4 °F 42.9 °F 44.6 °F 93% 29.65 in 5.0 mi Variable 6.9 mph - N/A   Overcast
3:53 PM 46.0 °F 42.5 °F 44.1 °F 93% 29.67 in 2.5 mi SSW 6.9 mph - N/A   Overcast
4:53 PM 46.0 °F 41.0 °F 44.1 °F 93% 29.69 in 2.0 mi SW 10.4 mph 18.4 mph 0.00 in   Light Drizzle
5:53 PM 45.0 °F 41.2 °F 43.0 °F 93% 29.70 in 2.0 mi SSW 6.9 mph - 0.00 in   Overcast
6:15 PM 44.6 °F 39.2 °F 42.8 °F 93% 29.69 in 5.0 mi SW 10.4 mph 18.4 mph N/A   Overcast
6:53 PM 45.0 °F 41.2 °F 42.1 °F 90% 29.72 in 7.0 mi Variable 6.9 mph - N/A   Overcast
7:53 PM 45.0 °F 41.8 °F 42.1 °F 90% 29.73 in 10.0 mi SSW 5.8 mph - N/A   Overcast
8:53 PM 45.0 °F 41.8 °F 43.0 °F 93% 29.73 in 10.0 mi SSW 5.8 mph - N/A   Overcast
9:53 PM 46.0 °F 43.1 °F 43.0 °F 89% 29.72 in 6.0 mi Variable 5.8 mph - N/A   Overcast
10:53 PM 46.0 °F 43.1 °F 44.1 °F 93% 29.70 in 9.0 mi Variable 5.8 mph - N/A   Overcast
11:09 PM 46.4 °F 45.2 °F 44.6 °F 93% 29.67 in 9.0 mi Variable 3.5 mph - N/A   Overcast
11:50 PM 48.2 °F - 44.6 °F 87% 29.67 in 10.0 mi Variable 5.8 mph - N/A   Overcast
11:53 PM 48.9 °F - 45.0 °F 86% 29.68 in 10.0 mi Variable 6.9 mph - N/A   Overcast